User: anonymous   Login
Location: Slanting_Bridge
(35.6330°N, 80.9830°W)
Time: 20:10:54
(UTC-05:00)
Language:

Hamsat - Orbit

View from above orbital plane
View from above orbital plane
View from above satellite
View from above satellite

Ground track
Ground track

The orbit data is extracted from the following two-line orbital elements,

1 28650U 05017B   17022.89611922 +.00000321 +00000-0 +40161-4 0  9996
2 28650 097.6336 002.3238 0022166 250.6494 109.2327 14.88542771634488
Epoch (UTC): 22 January 2017 21:30:24
Eccentricity: 0.0022166
inclination: 97.6336°
perigee height: 587 km
apogee height: 618 km
right ascension of ascending node: 2.3238°
argument of perigee: 250.6494°
revolutions per day: 14.88542771
mean anomaly at epoch: 109.2327°
orbit number at epoch: 63448

The dashed part of the orbit path shows where the satellite is in the earth's shadow,  

DLR